User: anonymous   Login
Location: Caltech
(34.1382°N, 118.1253°W)
Time: 06:44:29
(UTC-08:00)
Language:

NOSS 3-4 (C) - Orbit

View from above orbital plane
View from above orbital plane
View from above satellite
View from above satellite

Ground track
Ground track

The orbit data is extracted from the following two-line orbital elements,

1 31708U 07027C   15023.21007329 0.00000000  00000-0  00000-0 0    03
2 31708  63.4030 156.0101 0121000  35.5309 324.4691 13.40669694    07
Epoch (UTC): 23 January 2015 05:02:30
Eccentricity: 0.0121000
inclination: 63.4030°
perigee height: 1016 km
apogee height: 1197 km
right ascension of ascending node: 156.0101°
argument of perigee: 35.5309°
revolutions per day: 13.40669694
mean anomaly at epoch: 324.4691°
orbit number at epoch: 0

The dashed part of the orbit path shows where the satellite is in the earth's shadow,  

DLR